Dewpoint
53 53 53 53 53 53 53 53 52 53 53 53 54 54 54 54 54 54 54 54 53 53 54 54 55 56 49 38 29 34 39 38 38 40 40 39 40 41 39 38 36 30 29 31 29 31 36
53 53 53 53 53 53 53 53 53 53 53 54 54 54 54 54 54 53 53 53 53 53 54 54 55 55 43 27 33 34 35 36 36 38 39 39 41 42 40 39 36 32 32 31 31 31 35
53 53 53 53 54 53 53 53 53 53 53 53 54 54 54 53 53 52 52 52 52 53 53 54 55 52 40 32 33 34 35 35 36 37 37 38 42 42 41 39 36 35 32 31 28 29 29
53 53 53 53 54 53 53 53 53 53 54 54 54 54 53 53 52 52 52 52 53 54 54 54 54 48 35 36 33 34 34 35 35 37 37 40 42 40 39 39 36 33 29 26 27 27 26
53 53 53 53 53 53 53 53 53 54 54 53 54 53 52 51 51 52 51 52 53 53 53 54 46 42 29 32 32 34 35 33 35 36 37 39 39 38 36 33 29 26 24 25 23 26 23
52 53 53 53 53 53 52 53 53 54 54 54 53 52 51 51 52 51 52 51 50 44 48 45 41 30 29 27 33 34 35 34 33 34 34 38 37 30 28 27 23 24 23 23 22 22 22
52 52 53 53 53 52 51 52 53 53 53 53 53 52 52 51 51 50 50 41 30 36 32 27 25 26 28 31 35 33 33 32 32 31 26 30 24 24 26 27 27 24 22 22 23 24 21
51 51 53 52 52 52 50 51 52 52 52 52 52 53 52 50 50 47 44 39 40 41 30 33 29 30 31 34 31 31 33 29 30 26 26 25 23 27 28 27 24 23 22 23 24 25 24
51 51 52 52 52 51 50 50 50 50 50 50 51 52 52 51 48 43 38 39 42 42 36 34 30 25 28 32 30 29 31 31 29 25 25 26 25 26 28 24 24 24 24 24 25 25 24
52 51 52 52 52 51 51 50 50 50 50 50 51 52 52 49 41 41 40 43 43 42 29 26 23 28 28 31 28 32 33 31 28 24 26 28 27 23 26 20 25 23 26 26 25 23 19
52 52 52 52 51 51 51 51 51 51 51 51 50 51 49 49 42 39 40 44 42 41 -8 23 21 29 28 25 25 27 33 31 26 24 27 21 23 23 23 21 26 24 26 26 26 23 21
53 52 52 52 51 51 51 51 51 51 51 50 50 50 48 42 45 44 45 44 41 26 -2 12 21 19 20 27 25 25 28 32 30 26 28 26 27 29 25 26 27 26 26 27 25 24 19
53 52 52 52 51 50 50 50 50 50 50 50 49 47 44 43 39 45 46 41 18 5 13 12 10 19 19 20 18 20 18 21 15 4 2 16 22 24 27 21 24 25 24 15 10 13 14
53 53 52 52 51 50 50 50 50 50 50 49 48 46 45 43 45 46 43 30 -7 9 10 20 17 18 16 16 17 15 15 18 19 16 14 12 -4 18 22 24 23 25 24 15 12 12 15
52 53 52 52 51 50 49 49 49 50 50 49 48 46 45 45 44 44 37 8 -3 17 17 14 11 13 13 17 15 13 12 17 20 18 3 14 0 17 24 24 25 16 17 22 20 21 17
53 53 53 52 51 50 49 49 49 50 49 49 41 41 45 44 44 42 28 10 18 19 21 21 7 11 7 6 9 8 7 19 22 20 20 17 10 14 19 24 28 23 25 14 18 12 12
53 53 53 52 51 50 48 48 49 49 49 47 44 25 44 43 42 34 14 20 21 23 24 19 16 12 9 9 11 7 5 18 21 22 21 19 15 7 11 16 14 18 21 19 19 18 14
54 53 52 52 52 49 48 48 48 48 47 43 33 13 43 43 24 32 25 25 21 21 27 24 22 18 15 14 11 9 6 14 22 23 15 19 14 6 3 17 21 20 18 17 11 7 11
54 53 53 52 52 49 48 47 47 48 47 40 24 27 44 41 6 23 23 20 20 21 23 24 22 21 20 17 9 11 13 22 22 21 20 19 7 1 -1 6 14 12 16 18 16 17 14
54 53 53 53 51 49 48 47 46 47 46 40 29 17 34 36 33 25 17 15 18 25 23 22 22 19 19 18 18 13 13 18 20 22 26 22 15 7 -0 -2 11 11 12 14 13 11 10
54 53 53 53 51 49 48 46 44 45 46 40 31 17 29 17 30 27 26 24 21 16 23 23 19 19 18 15 14 10 14 13 17 24 24 20 15 15 14 15 15 14 14 14 13 13 11
54 53 53 52 51 49 48 45 44 44 44 37 29 25 32 23 25 21 22 19 19 20 18 17 18 20 18 16 16 15 17 16 14 20 23 25 17 19 15 17 15 14 13 11 12 12 13
53 53 53 52 51 49 48 46 44 44 43 37 38 37 27 14 20 16 17 20 19 21 17 21 18 13 11 14 19 19 19 19 18 16 18 20 21 19 12 14 12 6 10 10 9 12 12
53 53 52 52 51 49 48 46 44 44 43 42 40 38 27 8 16 15 18 18 17 16 16 19 16 13 16 26 22 21 20 19 17 15 17 11 14 12 9 10 8 9 13 12 11 15 20
53 53 52 52 51 49 48 46 45 45 43 42 40 37 30 16 19 15 17 17 20 26 26 21 18 20 27 26 23 22 21 18 17 19 18 16 14 11 9 11 11 11 13 16 14 17 21
53 52 52 51 50 49 47 46 46 45 44 43 42 42 36 25 26 24 28 31 31 31 27 27 28 29 29 27 25 21 20 19 20 18 26 22 18 15 14 10 9 13 21 23 23 16 30
52 52 51 50 50 48 47 47 47 46 46 44 44 43 39 35 36 35 33 32 30 27 30 32 32 31 31 27 24 23 22 23 21 22 22 22 21 17 16 16 16 25 26 24 16 22 30
52 51 51 50 49 48 48 48 48 48 48 45 44 44 40 37 38 38 38 37 37 36 34 35 35 35 33 28 27 27 26 25 23 24 21 19 20 19 19 17 17 28 28 24 27 28 26
52 51 50 49 49 50 49 47 46 45 47 48 44 43 43 40 40 41 40 40 40 39 38 37 37 35 35 34 33 32 28 27 24 19 24 20 20 19 20 20 22 23 23 22 22 23 23
Wind_Speed
6 7 8 9 11 11 11 12 11 11 11 10 10 11 12 13 11 12 13 13 14 14 15 17 18 19 8 5 4 9 7 7 9 5 10 14 7 9 9 12 15 14 8 14 18 13 10
6 7 8 8 10 11 11 12 11 11 11 12 12 11 12 13 13 13 13 14 15 15 15 15 15 16 3 6 4 9 10 10 8 3 6 8 7 10 10 12 12 7 14 20 16 11 10
6 7 8 9 8 9 10 11 11 11 12 12 13 13 13 14 14 16 15 16 16 17 15 14 11 4 3 5 4 10 9 9 7 4 7 4 5 4 7 11 6 14 16 18 20 13 9
5 6 7 8 10 10 11 11 11 11 11 12 14 14 14 13 15 17 19 19 18 17 14 11 5 2 5 5 3 9 9 10 9 10 8 7 5 5 4 10 12 5 3 8 10 9 12
3 4 6 7 8 10 10 12 12 11 11 11 12 14 15 18 18 20 21 22 18 13 8 7 1 1 7 1 9 12 6 9 14 7 5 6 1 3 5 9 10 4 14 15 10 7 8
1 4 6 8 8 9 11 11 12 13 12 12 12 13 15 18 21 22 23 20 7 6 2 3 5 4 3 10 11 10 6 11 9 13 8 2 1 5 10 12 12 14 16 7 8 6 5
3 4 5 7 9 10 10 11 13 13 13 13 13 14 15 18 20 23 15 4 6 2 4 1 4 4 10 14 6 4 7 11 7 5 11 3 15 14 14 15 15 13 8 11 5 13 5
3 4 5 5 7 9 10 11 12 13 14 14 15 16 16 17 20 19 5 6 3 2 7 5 5 6 9 1 5 9 10 6 6 8 15 10 7 13 16 12 16 12 12 12 8 18 14
4 4 5 6 8 7 9 10 10 12 14 16 17 17 17 18 15 6 10 4 2 2 2 5 4 4 5 2 5 7 8 7 4 8 11 3 6 14 14 11 19 9 9 12 10 19 4
6 4 3 5 6 7 8 9 11 12 13 14 16 16 16 24 3 3 3 5 4 1 3 2 2 2 2 2 4 2 2 2 5 7 8 3 5 12 14 8 11 7 8 13 11 12 4
9 6 5 4 3 6 7 7 9 11 12 13 16 13 14 9 3 3 3 5 4 1 5 1 2 1 2 2 7 2 1 2 6 8 2 7 6 10 9 10 9 10 18 20 13 8 6
11 8 6 4 4 6 8 9 8 10 11 14 16 12 13 4 2 2 5 5 1 1 4 1 1 3 4 2 2 5 1 1 4 5 3 11 1 0 3 17 6 14 12 7 3 1 3
12 10 7 4 5 4 8 10 11 12 14 15 13 10 4 2 0 5 5 2 3 2 1 2 3 3 5 4 4 2 4 4 5 10 11 10 3 2 3 10 7 18 13 8 7 7 1
15 12 9 6 3 4 6 9 11 12 15 17 13 7 1 1 3 4 2 2 5 2 1 2 4 7 3 2 2 4 3 1 4 3 3 6 9 6 6 1 5 9 4 5 4 7 11
16 13 11 8 6 3 5 7 8 11 15 19 16 1 1 1 2 3 1 1 4 2 2 6 10 3 1 2 2 5 4 2 2 3 5 7 6 4 3 2 2 7 7 1 3 2 3
18 15 12 10 7 4 4 6 9 11 13 15 6 3 1 2 3 3 1 4 3 1 2 0 2 2 3 4 3 7 3 1 3 2 2 1 8 5 4 2 1 0 5 5 5 7 6
21 17 15 11 9 6 4 6 9 13 16 9 2 6 1 2 1 4 4 6 3 1 1 1 3 4 4 4 3 4 4 2 2 2 1 2 2 8 6 1 9 3 1 2 1 2 3
22 18 15 12 10 7 2 5 9 13 21 1 1 4 1 2 2 1 4 2 1 2 1 2 1 3 4 3 5 4 4 1 3 2 4 2 2 6 17 5 3 1 1 1 1 5 4
22 19 16 15 12 7 3 2 6 10 12 5 1 3 1 2 4 4 4 3 2 1 3 1 3 4 2 2 4 5 5 2 3 2 2 0 2 7 9 3 2 1 2 3 1 1 11
23 19 18 15 12 10 5 1 4 7 10 2 2 4 2 2 2 3 3 5 2 1 4 2 3 3 2 4 7 6 4 2 4 5 8 2 5 11 14 16 5 15 14 10 10 9 14
24 21 18 16 15 12 8 3 1 5 8 2 1 3 1 2 4 4 2 3 2 3 2 2 2 5 2 4 8 9 4 7 5 5 4 5 9 13 15 14 18 22 27 20 19 22 18
25 23 19 18 15 12 10 6 3 1 4 2 2 0 2 3 1 1 3 2 3 4 2 3 3 8 4 5 8 18 9 7 10 5 5 4 8 5 19 13 17 26 25 28 21 19 22
24 22 21 19 18 15 12 8 5 1 3 1 1 1 2 3 0 0 2 2 2 4 3 1 2 7 13 11 6 12 14 17 19 17 11 6 7 4 17 9 8 21 4 1 2 5 8
23 22 21 21 18 15 12 8 7 4 3 3 2 2 4 6 5 4 3 3 9 6 6 8 11 5 3 10 12 13 18 25 26 30 18 14 8 5 11 8 7 11 12 13 11 6 14
25 23 22 21 18 15 12 9 7 7 4 2 0 1 4 4 2 3 2 4 8 9 9 12 10 4 3 6 6 8 8 5 9 4 7 23 9 5 5 7 9 17 8 1 3 7 24
25 23 21 19 18 17 14 12 9 8 6 3 2 1 2 2 2 2 1 3 8 5 6 2 5 1 2 1 2 4 4 4 5 3 5 4 10 11 4 7 6 7 12 8 2 10 27
26 24 22 19 19 17 15 10 8 6 5 4 3 3 2 1 4 2 4 3 2 1 4 7 4 4 0 2 5 6 6 5 4 4 2 1 1 14 18 10 8 19 18 13 8 11 25
26 23 21 20 18 16 14 12 10 7 6 4 3 5 2 2 7 2 2 8 11 6 7 2 7 1 1 3 3 4 3 3 4 7 6 2 3 5 3 6 11 24 12 7 10 15 19
25 24 22 19 19 19 18 16 14 10 7 5 3 3 2 3 6 2 5 6 5 5 4 5 4 3 2 4 2 4 4 6 9 16 9 15 1 3 3 1 10 14 15 12 16 18 24
Wind_Direction
31 23 23 16 11 9 8 6 5 356 353 351 347 341 335 333 334 331 327 323 320 320 321 320 324 329 356 350 302 302 332 311 310 354 339 332 351 345 342 307 318 303 312 320 298 282 243
26 20 22 16 13 8 5 5 3 355 351 348 347 343 339 336 331 329 325 319 315 316 314 315 323 331 359 2 265 300 319 312 315 323 307 336 330 330 295 302 311 308 317 302 301 267 247
21 21 9 6 9 11 6 4 1 355 353 348 346 345 340 337 332 326 320 314 310 308 306 306 319 332 318 258 293 318 327 325 311 301 282 279 312 341 310 299 309 314 302 297 283 275 243
9 8 6 4 1 3 4 3 3 357 356 352 346 344 338 335 328 321 314 308 302 298 297 288 307 352 270 257 283 339 332 321 310 305 241 258 258 274 224 267 336 320 14 324 287 249 245
358 359 356 1 1 360 3 3 358 3 358 354 353 347 341 334 327 318 311 304 299 294 265 279 328 42 307 291 343 315 318 306 312 292 245 233 31 273 302 335 350 14 323 318 314 214 205
335 343 356 356 356 1 1 3 4 1 3 356 352 347 343 335 328 320 315 308 273 320 225 237 271 316 272 321 317 304 288 284 289 303 329 130 90 0 4 0 338 309 321 315 23 20 192
311 339 351 350 353 355 3 5 3 3 0 355 348 343 341 335 334 326 335 14 11 30 7 253 305 266 291 316 307 305 328 330 342 35 1 340 28 1 320 311 300 297 4 9 328 358 304
262 307 329 347 353 357 2 2 2 2 357 355 346 340 335 336 333 338 6 64 102 217 318 301 264 272 275 4 308 328 4 33 358 354 5 10 11 333 327 339 8 26 14 359 323 340 329
248 284 323 341 347 357 352 359 2 1 358 352 345 338 331 331 328 40 68 56 337 23 283 291 233 265 289 7 310 304 12 344 336 344 351 356 321 341 356 6 360 334 6 339 321 326 329
240 254 285 323 337 338 348 2 356 357 357 351 348 341 334 333 63 359 54 334 327 318 32 248 263 273 258 244 293 264 53 37 350 325 346 293 320 349 341 354 6 319 327 332 326 354 342
219 229 263 287 308 328 335 349 355 352 352 349 346 347 339 8 327 46 322 322 308 241 333 203 236 155 292 291 310 324 125 82 327 320 354 319 318 347 342 327 334 270 307 301 288 307 339
225 224 221 265 304 326 323 332 351 348 348 346 341 341 345 43 41 355 322 325 7 10 264 325 291 324 348 231 245 304 298 44 280 320 268 270 315 246 295 312 312 325 333 356 56 337 55
218 228 229 234 290 316 324 330 340 344 344 339 339 334 353 325 288 325 324 73 324 205 352 317 312 321 342 279 304 241 312 21 26 354 350 326 333 306 333 341 350 1 15 360 23 17 0
206 211 216 222 233 292 324 325 336 339 337 335 330 316 309 74 335 5 355 35 245 252 316 332 276 297 224 323 266 304 299 226 33 31 299 350 339 357 353 56 301 325 35 62 1 344 305
205 209 210 217 216 237 296 308 332 338 337 338 319 301 236 235 0 42 40 254 248 246 323 340 322 291 264 292 309 354 300 142 106 34 18 350 296 324 268 324 11 338 17 343 281 287 292
201 204 206 213 224 235 268 313 330 332 338 339 319 325 243 345 38 69 130 246 252 289 331 297 279 295 301 306 304 353 307 123 146 127 104 306 293 294 321 339 314 56 315 10 11 345 322
195 201 202 202 206 226 276 325 339 337 337 325 38 317 343 29 57 70 238 233 282 11 322 234 276 297 294 312 305 292 273 94 101 192 135 292 218 296 333 343 306 331 0 351 312 208 298
196 194 196 200 204 192 250 325 350 352 339 304 13 271 264 76 301 215 248 245 330 314 273 271 251 237 264 316 294 286 263 107 94 102 312 210 232 272 292 319 350 150 102 72 10 302 296
197 192 192 197 194 171 213 343 352 348 10 339 281 277 342 108 243 226 269 267 257 242 260 188 276 229 14 283 299 270 307 202 152 134 220 319 270 307 325 336 14 41 214 211 260 209 252
193 190 194 191 183 166 193 234 340 335 5 20 346 298 330 35 235 246 285 287 218 220 266 241 274 354 307 281 238 276 268 246 213 210 171 167 226 229 257 271 298 296 283 269 246 245 262
186 193 192 180 177 171 181 196 328 357 0 74 144 269 287 284 269 245 336 310 296 286 219 266 303 241 275 286 316 274 306 322 291 263 194 195 244 247 258 273 291 286 287 278 245 241 232
183 189 182 176 172 175 182 187 168 50 358 127 173 129 330 281 265 278 251 262 302 319 315 315 232 314 319 258 270 288 309 290 272 243 205 216 258 219 272 269 279 294 290 276 250 252 240
184 181 177 171 178 180 184 186 167 109 70 173 203 162 145 281 225 217 279 311 43 17 315 125 104 340 303 296 288 278 259 256 251 260 240 228 234 255 274 283 333 304 245 100 205 214 246
175 179 175 177 178 179 184 188 181 146 114 147 202 155 156 246 210 196 228 300 293 291 266 277 302 282 273 314 291 276 269 263 258 255 226 241 204 220 277 280 232 242 283 281 265 53 30
176 176 179 175 173 173 183 187 192 164 125 135 152 171 176 221 199 267 278 294 312 308 283 267 267 256 296 318 307 305 293 281 270 251 233 215 202 236 246 216 293 287 292 106 84 67 14
173 175 178 172 172 176 175 184 187 175 135 107 112 158 79 148 221 156 236 253 284 292 317 330 6 50 20 310 279 252 278 289 287 286 25 110 211 195 190 247 267 33 326 304 178 220 13
172 174 171 174 178 174 176 179 184 176 154 114 74 47 88 207 265 255 240 286 320 237 265 291 314 326 212 249 244 246 243 242 261 262 296 311 221 229 239 255 278 346 353 330 263 323 336
170 169 172 175 174 169 165 159 150 152 162 131 108 35 131 223 275 274 312 283 290 279 264 316 327 3 348 247 261 274 272 292 289 345 331 285 277 235 224 239 268 4 24 33 336 326 330
165 168 168 165 155 146 137 130 122 115 118 117 142 66 27 192 274 301 296 288 260 266 272 206 231 185 247 241 267 305 300 321 317 286 314 295 331 292 270 318 59 53 74 17 348 329 323